sat.trackr.live / text

‹ back to catalog

SHIJIAN-6 04A (SJ-6 04A)

NORAD 37179 · 2010-051A

PAYLOAD ACTIVE UNKNOWN

§ Identity

Operator
Country
PRC
Launch date
2010-10-06
Launch site
TAISC
Launch vehicle
Mass (kg)
RCS (m²)
1.16

External: N2YO · Heavens-Above · Gunter

§ Orbital elements

Epoch: 2026-09-09T04:18:25.030368Z

Period
94.81 min
Inclination
97.8264°
Eccentricity
0.0016566
Mean motion
15.18838146 rev/d
Perigee alt
497.9 km
Apogee alt
520.8 km
Semi-major
6,887.5 km
B*
1.8693e-4
RAAN
278.3060°
Arg perigee
298.7014°
Mean anomaly
61.2553°
Rev number
86,969

§ Raw data

SHIJIAN-6 04A (SJ-6 04A)1 37179U 10051A   26252.17945637  .00003831  00000+0  18693-3 0  99972 37179  97.8264 278.3060 0016566 298.7014  61.2553 15.18838146869691

JSON: /api/v1/satellites/37179 · /tle

For live sub-satellite position, see the globe view (requires WebGL).

§ Visibility from observer

Set your observer location to see the next 7 days of passes ≥ 10°. The values pass through the URL so the page stays shareable.

No JS? Fill the form by hand. The geolocation button needs JavaScript.

§ Radio — SatNOGS DB

ModeDescriptionDownlinkUplink
FM S-band telemetry 2.230 GHz
FM S-band telemetry (inactive) 2.270 GHz

2 transmitters · refreshed weekly from db.satnogs.org